| time (UTC) | temp F | wind direction | speed knots | gust knots | rain 1hr in | rain 24hr in | rain mn in | humidity % | barometer mb |
| 20260504110311 | 101 | 0 | 0.0 | 0.0 | 0.00 | 0.00 | 0.00 | 42 | 1001.0 |
| 20260504100250 | 100 | 0 | 0.0 | 0.0 | 0.00 | 0.00 | 0.00 | 45 | 1000.0 |
| 20260504080554 | 100 | 0 | 0.0 | 0.0 | 0.00 | 0.00 | 0.00 | 49 | 1001.0 |
| 20260504050354 | 103 | 0 | 0.0 | 0.0 | 0.00 | 0.00 | 0.00 | 43 | 1004.0 |
| 20260504044844 | 102 | 0 | 0.0 | 0.0 | 0.00 | 0.00 | 0.00 | 45 | 1005.0 |
| 20260504043334 | 100 | 0 | 0.0 | 0.0 | 0.00 | 0.00 | 0.00 | 50 | 1005.0 |
| 20260504041824 | 100 | 0 | 0.0 | 0.0 | 0.00 | 0.00 | 0.00 | 50 | 1005.0 |
| 20260504040314 | 100 | 0 | 0.0 | 0.0 | 0.00 | 0.00 | 0.00 | 49 | 1005.0 |
| 20260504034804 | 100 | 0 | 0.0 | 0.0 | 0.00 | 0.00 | 0.00 | 51 | 1005.0 |
| 20260504033254 | 100 | 0 | 0.0 | 0.0 | 0.00 | 0.00 | 0.00 | 50 | 1005.0 |
| 20260504031744 | 99 | 0 | 0.0 | 0.0 | 0.00 | 0.00 | 0.00 | 52 | 1005.0 |
| 20260504030234 | 99 | 0 | 0.0 | 0.0 | 0.00 | 0.00 | 0.00 | 52 | 1005.0 |
| 20260504024724 | 98 | 0 | 0.0 | 0.0 | 0.00 | 0.00 | 0.00 | 52 | 1005.0 |
| 20260504023214 | 97 | 0 | 0.0 | 0.0 | 0.00 | 0.00 | 0.00 | 51 | 1005.0 |
| 20260504021704 | 96 | 0 | 0.0 | 0.0 | 0.00 | 0.00 | 0.00 | 52 | 1005.0 |
| 20260504020154 | 97 | 0 | 0.0 | 0.0 | 0.00 | 0.00 | 0.00 | 52 | 1005.0 |
| 20260504014644 | 96 | 0 | 0.0 | 0.0 | 0.00 | 0.00 | 0.00 | 51 | 1005.0 |
| 20260504013134 | 96 | 0 | 0.0 | 0.0 | 0.00 | 0.00 | 0.00 | 51 | 1005.0 |
| 20260504011624 | 96 | 0 | 0.0 | 0.0 | 0.00 | 0.00 | 0.00 | 51 | 1005.0 |
| 20260504010114 | 96 | 0 | 0.0 | 0.0 | 0.00 | 0.00 | 0.00 | 53 | 1005.0 |
| 20260504004604 | 95 | 0 | 0.0 | 0.0 | 0.00 | 0.00 | 0.00 | 54 | 1005.0 |
| 20260504003054 | 95 | 0 | 0.0 | 0.0 | 0.00 | 0.00 | 0.00 | 49 | 1005.0 |
| 20260504001544 | 95 | 0 | 0.0 | 0.0 | 0.00 | 0.00 | 0.00 | 42 | 1004.0 |
| 20260504000034 | 94 | 0 | 0.0 | 0.0 | 0.00 | 0.00 | 0.00 | 41 | 1004.0 |
| 20260503234524 | 94 | 0 | 0.0 | 0.0 | 0.00 | 0.00 | 0.00 | 40 | 1004.0 |
| 20260503233014 | 94 | 0 | 0.0 | 0.0 | 0.00 | 0.00 | 0.00 | 39 | 1004.0 |
| 20260503231504 | 94 | 0 | 0.0 | 0.0 | 0.00 | 0.00 | 0.00 | 38 | 1004.0 |
| 20260503225954 | 94 | 0 | 0.0 | 0.0 | 0.00 | 0.00 | 0.00 | 37 | 1004.0 |
| 20260503224444 | 93 | 0 | 0.0 | 0.0 | 0.00 | 0.00 | 0.00 | 36 | 1003.0 |
| 20260503222934 | 93 | 0 | 0.0 | 0.0 | 0.00 | 0.00 | 0.00 | 35 | 1003.0 |
| 20260503221424 | 93 | 0 | 0.0 | 0.0 | 0.00 | 0.00 | 0.00 | 33 | 1003.0 |
| 20260503215914 | 92 | 0 | 0.0 | 0.0 | 0.00 | 0.00 | 0.00 | 31 | 1003.0 |
| 20260503214404 | 91 | 0 | 0.0 | 0.0 | 0.00 | 0.00 | 0.00 | 29 | 1002.0 |
| 20260503212854 | 90 | 0 | 0.0 | 0.0 | 0.00 | 0.00 | 0.00 | 26 | 1002.0 |
| 20260503211344 | 90 | 0 | 0.0 | 0.0 | 0.00 | 0.00 | 0.00 | 26 | 1002.0 |
| 20260503205834 | 90 | 0 | 0.0 | 0.0 | 0.00 | 0.00 | 0.00 | 26 | 1002.0 |
| 20260503204324 | 90 | 0 | 0.0 | 0.0 | 0.00 | 0.00 | 0.00 | 26 | 1002.0 |
| 20260503202814 | 90 | 0 | 0.0 | 0.0 | 0.00 | 0.00 | 0.00 | 26 | 1002.0 |
| 20260503201304 | 90 | 0 | 0.0 | 0.0 | 0.00 | 0.00 | 0.00 | 26 | 1002.0 |
| 20260503195754 | 90 | 0 | 0.0 | 0.0 | 0.00 | 0.00 | 0.00 | 26 | 1002.0 |
| 20260503194244 | 90 | 0 | 0.0 | 0.0 | 0.00 | 0.00 | 0.00 | 26 | 1002.0 |
| 20260503192734 | 90 | 0 | 0.0 | 0.0 | 0.00 | 0.00 | 0.00 | 26 | 1002.0 |
| 20260503191224 | 91 | 0 | 0.0 | 0.0 | 0.00 | 0.00 | 0.00 | 26 | 1002.0 |
| 20260503185714 | 91 | 0 | 0.0 | 0.0 | 0.00 | 0.00 | 0.00 | 26 | 1003.0 |
| 20260503184204 | 91 | 0 | 0.0 | 0.0 | 0.00 | 0.00 | 0.00 | 26 | 1002.0 |
| 20260503182654 | 91 | 0 | 0.0 | 0.0 | 0.00 | 0.00 | 0.00 | 26 | 1002.0 |
| 20260503181144 | 91 | 0 | 0.0 | 0.0 | 0.00 | 0.00 | 0.00 | 26 | 1003.0 |
| 20260503175634 | 91 | 0 | 0.0 | 0.0 | 0.00 | 0.00 | 0.00 | 26 | 1003.0 |
| 20260503174124 | 91 | 0 | 0.0 | 0.0 | 0.00 | 0.00 | 0.00 | 26 | 1003.0 |
| 20260503172614 | 91 | 0 | 0.0 | 0.0 | 0.00 | 0.00 | 0.00 | 27 | 1003.0 |
| 20260503171104 | 91 | 0 | 0.0 | 0.0 | 0.00 | 0.00 | 0.00 | 27 | 1003.0 |
| 20260503150944 | 92 | 0 | 0.0 | 0.0 | 0.00 | 0.00 | 0.00 | 31 | 1002.0 |
| 20260503130824 | 99 | 0 | 0.0 | 0.0 | 0.00 | 0.00 | 0.00 | 39 | 1000.0 |